Location: Hautevesnes
(49.1092°N, 3.2322°E)
Time: 01:46:49
(UTC+00:00)

Daily predictions for brighter satellites

Satellite Brightness Start Highest point End
(mag) Time Altitude Azimuth Time Altitude Azimuth Time Altitude Azimuth
BREEZE-M DEB (TANK) 4.5 00:01:13 10° WNW 00:05:24 76° SSW 00:21:30 10° ESE
Cosmos 1937 Rocket 4.4 00:04:13 25° SSE 00:06:32 37° ESE 00:11:20 10° NE
Cosmos 923 Rocket 4.3 00:02:06 10° NNW 00:07:21 64° ENE 00:11:00 20° SE
Cosmos 1674 Rocket 4.4 00:05:41 24° SW 00:07:48 41° WNW 00:11:56 10° N
SL-12 R/B(2) 4.3 00:02:26 19° SSW 00:08:47 82° SE 00:18:42 10° NE
Okean 2 Rocket 4.4 00:10:25 10° NNW 00:14:17 29° W 00:16:03 22° SW
Cosmos 1898 Rocket 3.7 00:13:33 30° S 00:15:58 59° ESE 00:21:03 10° NNE
ALOS 2 4.3 00:17:02 17° WSW 00:18:35 20° W 00:21:53 10° NW
GEOS 3 Rocket 4.0 00:15:07 10° NE 00:20:04 45° ESE 00:22:15 29° S
Cosmos 2074 Rocket 4.5 00:21:27 22° SW 00:25:22 52° WNW 00:31:27 10° N
In-Cosmos 22 Rocket 4.3 00:27:54 27° S 00:31:13 75° E 00:37:03 10° NNE
CZ-2D R/B 4.3 00:28:22 10° NE 00:31:28 16° E 00:34:33 10° ESE
Cosmos 1606 3.0 00:30:13 10° N 00:33:45 55° ENE 00:35:21 28° SE
Helios 1A Rocket 3.4 00:32:17 21° SE 00:34:30 49° ENE 00:38:11 10° N
Cosmos 1869 3.4 00:34:07 10° N 00:37:48 62° ENE 00:39:31 29° SSE
SL-16 R/B 2.8 00:35:23 10° NW 00:40:39 40° WSW 00:43:10 26° SSW
Cosmos 2341 Rocket 4.1 00:36:54 24° S 00:40:47 72° E 00:47:00 10° NNE
CZ-2C R/B 4.3 00:36:13 10° ESE 00:40:48 30° ENE 00:45:28 10° N
CENTAUR R/B 2.9 00:35:46 13° WSW 00:40:59 64° NW 00:48:19 10° NE
USA 234 4.4 00:34:55 10° ENE 00:41:04 45° N 00:47:13 10° WNW
Cosmos 2237 Rocket 4.3 00:42:13 10° WNW 00:44:07 12° W 00:46:00 10° WSW
Cosmos 1461 2.6 00:43:01 34° SSW 00:44:37 80° SE 00:48:30 10° NE
Cosmos 1603 4.3 00:40:16 10° NNW 00:45:58 57° ENE 00:51:35 10° SE
Cosmos 1680 Rocket 3.4 00:42:55 10° NNW 00:48:09 83° WSW 00:51:38 21° SSE
Cosmos 2228 3.5 00:44:32 10° N 00:48:48 55° ENE 00:51:38 20° SSE
Cosmos 292 Rocket 4.2 00:48:11 23° SW 00:50:59 56° WNW 00:55:46 10° NNE
CRYOSAT 2 4.3 00:46:28 10° N 00:51:23 90° NNW 00:54:08 27° S
Cosmos 1943 3.1 00:45:56 10° NNW 00:51:35 90° NE 00:56:23 15° SSE
Cosmos 2227 Rocket 3.5 00:46:36 10° WSW 00:51:45 34° NW 00:56:55 10° NNE
Cosmos 2082 3.8 00:48:25 23° SW 00:51:59 75° WNW 00:57:38 10° NNE
Cosmos 2112 Rocket 3.9 00:46:56 10° NNW 00:52:10 89° WSW 00:55:56 19° SSE
Aureole 1 Rocket 3.7 00:53:40 23° WSW 00:55:51 46° WNW 01:00:31 10° NNE
Resurs 1-4 Rocket 3.6 00:54:40 10° NE 00:59:09 27° E 01:03:21 11° SSE
USA 238 DEB 4.1 00:59:38 22° S 01:03:19 45° ESE 01:09:37 10° NE
USA 238 4.1 00:59:40 22° S 01:03:22 44° ESE 01:09:40 10° NE
BREEZE-M DEB (TANK) 2.9 00:59:46 10° WNW 01:04:15 30° SW 01:04:15 30° SW
H-2A R/B 3.8 01:05:28 10° N 01:08:48 23° WNW 01:11:28 13° WSW
BlueWalker 3 2.9 01:05:43 10° WNW 01:09:23 49° NNE 01:13:01 10° E
Cosmos 1818 4.1 01:04:31 10° NW 01:09:37 40° WSW 01:12:28 23° S
Cosmos 2218 Rocket 4.0 01:07:06 22° S 01:11:19 88° W 01:17:31 10° N
Cosmos 1544 Rocket 3.6 01:07:51 10° NNW 01:12:16 65° W 01:14:43 25° S
Cosmos 2366 rocket 4.0 01:08:29 22° SSW 01:12:44 83° W 01:18:59 10° N
Cosmos 372 Rocket 4.5 01:15:43 20° SW 01:19:15 52° WNW 01:24:22 10° NNE
Cosmos 2219 4.3 01:14:58 11° WSW 01:19:48 36° NW 01:24:59 10° NNE
Cosmos 494 Rocket 4.1 01:19:27 10° NNW 01:24:45 83° ENE 01:30:00 10° SSE
Cosmos 921 Rocket 3.0 01:23:30 10° NNW 01:27:45 75° ENE 01:31:45 11° SSE
Cosmos 1975 Rocket 4.3 01:25:49 17° WSW 01:28:20 30° WNW 01:32:15 10° N
Cosmos 2227 4.2 01:26:28 21° SSW 01:30:28 89° ESE 01:36:17 10° NNE
IDEFIX/ARIANE 42P 2.8 01:28:32 10° NNE 01:33:47 67° ESE 01:37:48 17° S
Cosmos 1844 4.2 01:32:48 18° S 01:37:04 55° ESE 01:42:44 10° NE
Cosmos 2263 Rocket 3.3 01:33:26 11° WSW 01:38:16 36° NW 01:43:24 10° NNE
NOSS 3-2 (A) 4.3 01:33:35 10° WSW 01:38:49 44° NNW 01:45:04 10° NE
MSX 4.1 01:33:17 10° NNE 01:39:00 65° ESE 01:43:47 15° S
NOSS 3-2 (C) 3.6 01:42:25 14° SW 01:47:00 66° NW 01:53:27 10° NE
Cosmos 1606 Rocket 3.6 01:43:03 10° N 01:47:32 82° E 01:51:46 11° SSE
Meteor 2-13 Rocket 4.5 01:43:35 10° NNW 01:49:39 67° W 01:55:05 13° S
CZ-2C R/B 3.4 01:48:28 10° NNE 01:53:48 62° E 01:58:24 12° S
Genesis I 4.0 01:51:23 10° NNW 01:54:56 50° NE 01:58:28 10° ESE
Cosmos 1844 Rocket 2.7 01:51:37 17° SSW 01:55:59 84° ESE 02:01:36 10° NNE
Iridium 2 4.3 01:54:18 12° SSE 01:56:12 27° E 01:58:21 10° NNE
Cosmos 1536 Rocket 4.0 01:54:56 18° SW 01:58:00 50° WNW 02:02:18 10° N
GEOS 3 Rocket 4.4 01:53:11 10° NNE 01:58:06 46° NW 02:02:58 10° WSW
SL-16 R/B 3.1 01:52:13 10° SSE 01:58:21 63° ENE 02:04:30 10° N
Cosmos 1867 3.6 01:55:11 16° SW 01:59:35 83° NW 02:05:07 10° NE
Cosmos 1726 Rocket 3.6 01:56:57 10° N 02:01:25 85° E 02:05:49 10° S
Cosmos 2239 Rocket 4.5 01:55:59 14° S 02:01:27 88° W 02:07:38 10° N
Cosmos 1727 Rocket 4.3 01:57:44 10° NNW 02:03:54 55° W 02:09:39 12° SSW
H-2A R/B 3.4 02:02:53 10° N 02:06:52 68° WNW 02:10:00 16° SSW
Cosmos 1238 Rocket 3.8 02:08:16 10° N 02:11:20 35° ENE 02:14:07 10° SE
CZ-2D R/B 2.1 02:06:50 10° NNE 02:12:12 85° WNW 02:17:02 12° SSW
USA 81 4.4 02:08:22 10° N 02:13:39 68° E 02:18:53 10° SSE
ALOS 3.2 02:09:54 10° NNE 02:14:19 43° E 02:18:41 10° S
ADEOS II 2.2 02:10:44 10° NNE 02:16:00 74° ESE 02:21:14 10° S
Cosmos 1437 Rocket 3.6 02:16:19 15° SW 02:19:06 35° WNW 02:22:35 10° N
CZ-2C R/B 3.0 02:15:43 10° S 02:20:49 48° W 02:26:06 10° NNW
USA 234 4.2 02:17:08 10° E 02:23:28 54° NNE 02:29:48 10° WNW
Alouette 2 Rocket 3.5 02:19:23 10° S 02:23:35 69° ESE 02:27:08 10° NNE
AQUA 4.0 02:20:19 10° NNE 02:25:03 72° ESE 02:29:46 10° S
Cosmos 1607 4.3 02:19:07 10° NW 02:25:10 45° WSW 02:31:04 10° S
ASTEX 1 3.4 02:22:07 10° S 02:26:58 74° W 02:31:51 10° N
FENGYUN 3A 3.7 02:22:51 10° NNE 02:28:16 90° ESE 02:33:40 10° SSW
ATLAS 5 CENTAUR R/B 2.6 02:27:12 10° S 02:29:56 24° ESE 02:32:53 10° ENE
Cosmos 1812 2.5 02:26:49 10° NNW 02:30:22 66° W 02:33:53 10° S
Resurs 1-4 Rocket 2.6 02:34:05 10° N 02:39:11 49° WNW 02:44:15 10° SW
NPP 4.4 02:35:17 10° N 02:40:17 40° WNW 02:45:15 10° SW
Cosmos 2298 Rocket 4.4 02:36:29 10° S 02:41:43 63° ESE 02:47:00 10° NNE
Timation 2 Rocket 4.1 02:37:31 10° SSW 02:44:07 88° ESE 02:50:28 10° NNE
Cosmos 2058 2.9 02:40:36 10° SSW 02:44:40 82° W 02:48:47 10° N
BlueWalker 3 1.8 02:43:57 10° WNW 02:47:39 61° SSW 02:51:21 10° SE
Cosmos 1892 Rocket 3.9 02:43:42 10° SSW 02:48:00 51° WNW 02:52:21 10° N
SAR-Lupe-4 3.9 02:44:51 10° NNE 02:48:24 65° ESE 02:51:56 10° S
Cosmos 2058 Rocket 3.2 02:45:39 10° NNW 02:50:00 57° W 02:54:17 10° S
ATLAS CENTAUR R/B 4.2 02:51:03 10° NNW 02:54:10 23° NE 02:57:23 10° E
USA 238 DEB 4.2 02:48:01 10° WSW 02:54:10 52° NW 03:00:57 10° NE
USA 238 4.2 02:48:02 10° WSW 02:54:13 52° NW 03:01:00 10° NE
Envisat 3.6 02:53:57 10° NNE 02:58:58 58° E 03:03:57 10° S
NOSS 2-2 (C) 3.2 02:57:08 10° SSW 03:00:17 54° SE 03:03:21 10° NE
Cosmos 1605 Rocket 4.0 02:57:27 10° SSW 03:03:38 81° W 03:09:47 10° N
